This demonstration page uses our WeatherBlox Daily Observations layout. Learn more.

Left ArrowRight Arrow

41.86663, -103.66717

Hourly Observations for September 13, 2015

Temp ( °F °C ) Dew Point ( °F °C ) Humidity (%) Winds ( mph kmh ) Pressure ( in mb ) Visibility ( mi km ) Precip ( " mm )
12:53 am 00:53 Clear 54 12.2 46 7.8 75 75 NE 12 19 29.86 1011 10 16.0934 0 0
1:53 am 01:53 Clear 55 12.8 43 6.1 64 64 NE 10 17 29.84 1011 10 16.0934 0 0
2:53 am 02:53 Clear 55 12.8 43 6.1 64 64 ENE 14 22 29.83 1010 10 16.0934 0 0
3:53 am 03:53 Clear 55 12.8 44 6.7 67 67 NE 9 15 29.8 1009 10 16.0934 0 0
4:53 am 04:53 Clear 52 11.1 44 6.7 75 75 VRB 5 7 29.79 1009 10 16.0934 0 0
5:53 am 05:53 Clear 48 8.9 43 6.1 83 83 NE 8 13 29.79 1009 10 16.0934 0 0
6:53 am 06:53 Sunny 49 9.4 44 6.7 83 83 ENE 8 13 29.79 1009 10 16.0934 0 0
7:53 am 07:53 Sunny 54 12.2 47 8.3 77 77 VRB 6 9 29.8 1009 10 16.0934 0 0
8:53 am 08:53 Sunny with Light Rain 60 15.6 48 8.9 65 65 WNW 21 33 29.79 1009 10 16.0934 0 0.0254
9:53 am 09:53 Sunny with Light Rain 67 19.4 46 7.8 47 47 NW 17 28 29.78 1008 10 16.0934 0 0.0254
10:53 am 10:53 Sunny with Light Rain 74 23.3 45 7.2 36 36 WNW 21 33 29.75 1008 10 16.0934 0 0.0254
11:53 am 11:53 Sunny with Light Rain 81 27.2 46 7.8 29 29 NW 20 31 29.72 1007 10 16.0934 0 0.0254
12:53 pm 12:53 Sunny 86 30 44 6.7 23 23 WNW 12 19 29.69 1006 10 16.0934 0 0.0254
1:53 pm 13:53 Sunny 89 31.7 41 5 19 19 W 16 26 29.67 1005 10 16.0934 0 0
2:53 pm 14:53 Sunny 92 33.3 26 -3.3 9 9 WNW 14 22 29.64 1004 10 16.0934 0 0
3:53 pm 15:53 Sunny 94 34.4 28 -2.2 9 9 WNW 14 22 29.62 1003 10 16.0934 0 0
4:53 pm 16:53 Sunny 91 32.8 29 -1.7 11 11 WNW 17 28 29.62 1003 10 16.0934 0 0
5:53 pm 17:53 Sunny 90 32.2 29 -1.7 11 11 NW 9 15 29.62 1003 10 16.0934 0 0
6:53 pm 18:53 Sunny 80 26.7 42 5.6 26 26 NE 6 9 29.62 1003 10 16.0934 0 0
7:53 pm 19:53 Clear 78 25.6 43 6.1 29 29 VRB 5 7 29.63 1003 10 16.0934 0 0
8:53 pm 20:53 Clear 65 18.3 44 6.7 47 47 NE 13 20 29.66 1004 10 16.0934 0 0
9:53 pm 21:53 Clear 64 17.8 42 5.6 45 45 NNE 10 17 29.65 1004 10 16.0934 0 0
10:53 pm 22:53 Clear 62 16.7 43 6.1 50 50 VRB 5 7 29.64 1004 10 16.0934 0 0
11:53 pm 23:53 Clear 58 14.4 43 6.1 58 58 NW 18 30 29.63 1003 10 16.0934 0 0

Powered by AerisWeather